カタログに戻る

STARLINK-4440

運用中通信SSO
NORAD 53671·PAYLOAD·🇺🇸 United States

打ち上げ Aug 31, 2022 から Vandenberg Space Force Base

Loading…

次のパス (今後24時間)

TLE

最新Source: CelesTrak SupGP

元期: Sep 15, 2026, 02:23 UTC

1 53671C 22105Z   26258.09979167  .00051153  00000+0  35509-2 0  2589
2 53671  97.2845 132.1380 0002122  81.3084  41.2755 15.05638602    19

AllMySatでSTARLINK-4440をリアルタイム追跡

Download on the App Store